This is the latest recevied weather packets stored in our database for station/object KQ7A. If no packets are shown the sender has not sent any weather packets the latest 10 day(s).
| Time | Temp. | Humidity | Pressure | Rain* | Wind** | Luminosity | Snow |
|---|---|---|---|---|---|---|---|
| 1778175113 | 21.11° C | 42% | 1021.4 hPa | 0 mm | - | 893 W/m² | - |
| 1778174810 | 21.11° C | 43% | 1021.4 hPa | 0 mm | - | 872 W/m² | - |
| 1778174502 | 21.11° C | 42% | 1021.5 hPa | 0 mm | - | 891 W/m² | - |
| 1778174202 | 20.56° C | 48% | 1021.6 hPa | 0 mm | - | 864 W/m² | - |
| 1778173899 | 20° C | 45% | 1021.9 hPa | 0 mm | - | 840 W/m² | - |
| 1778173596 | 20° C | 46% | 1022 hPa | 0 mm | - | 805 W/m² | - |
| 1778173294 | 19.44° C | 49% | 1021.6 hPa | 0 mm | - | 761 W/m² | - |
| 1778172989 | 18.33° C | 51% | 1021.6 hPa | 0 mm | - | 705 W/m² | - |
| 1778172685 | 18.89° C | 53% | 1021.8 hPa | 0 mm | - | 608 W/m² | - |
| 1778172381 | 17.78° C | 54% | 1021.9 hPa | 0 mm | - | 676 W/m² | - |
| 1778172079 | 17.78° C | 53% | 1021.6 hPa | 0 mm | - | 796 W/m² | - |
| 1778171776 | 17.22° C | 49% | 1021.9 hPa | 0 mm | - | 724 W/m² | - |
| 1778171473 | 17.22° C | 54% | 1022.1 hPa | 0 mm | - | 694 W/m² | - |
| 1778171168 | 17.22° C | 56% | 1021.9 hPa | 0 mm | - | 664 W/m² | - |
| 1778170866 | 16.67° C | 54% | 1022 hPa | 0 mm | - | 614 W/m² | - |
| 1778170561 | 16.67° C | 54% | 1022.1 hPa | 0 mm | - | 599 W/m² | - |
| 1778170259 | 16.11° C | 60% | 1022.2 hPa | 0 mm | - | 586 W/m² | - |
| 1778169955 | 15.56° C | 60% | 1022 hPa | 0 mm | - | 547 W/m² | - |
| 1778169651 | 15.56° C | 57% | 1022.3 hPa | 0 mm | - | 533 W/m² | - |
| 1778169346 | 15.56° C | 59% | 1022.1 hPa | 0 mm | - | 484 W/m² | - |
| 1778169044 | 15.56° C | 55% | 1022.2 hPa | 0 mm | - | 436 W/m² | - |
| 1778168741 | 15° C | 63% | 1022.1 hPa | 0 mm | - | 405 W/m² | - |
| 1778168438 | 15° C | 61% | 1022.1 hPa | 0 mm | - | 390 W/m² | - |
| 1778168134 | 15° C | 60% | 1022.1 hPa | 0 mm | - | 365 W/m² | - |
| 1778167831 | 15° C | 65% | 1021.9 hPa | 0 mm | - | 328 W/m² | - |
* Rain latest hour (hover to see other rain measurements)
** Current wind speed in m/s (hover to see current wind gust speed)